TIME,DELAY(SENSOR),PRES,OXYGEN,RAWTEMP,T(OPTODE),TCPHASE,FLUOR,BETA(BETA700),BETA(BETA412),BETA(BETA440),CDOM,C(CSC),ED(ED411.90),ED(ED443.80),ED(ED489.40),ED(ED554.70),LU(LU412.20),LU(LU443.80),LU(LU489.40),LU(LU555.00),COMP,TILTX,TILTY,CHECK
1363213766,5804,869.4899902343750000,190.6419982910156200,496.6022949218750000,7.6348662376403810,38.4316787719726560,75,523,95,78,80,11544,2146960027,2147517979,2147291958,2147510994,2147085229,2146920941,2147715794,2147120000,1645,-1,9,59280
1363217362,5805,959.8699951171875000,242.3838958740234400,552.9365234375000000,5.8772349357604980,36.4727592468261700,76,533,98,78,80,11539,2146960969,2147519542,2147298907,2147526098,2147087588,2146915730,2147729078,2147121664,2406,-1,9,23374
1363220962,5810,983.4000244140625000,254.9454956054687500,562.7893066406250000,5.5673518180847170,36.0326004028320300,77,545,98,79,80,11540,2146961252,2147515657,2147298889,2147526564,2147087707,2146919689,2147734436,2147120914,2678,-1,9,9396
1363224562,5807,993.7000122070312000,259.0174865722656000,563.8698120117188000,5.5333228111267090,35.8583297729492200,75,510,97,78,80,11540,2146962614,2147517997,2147299136,2147524077,2147086884,2146917869,2147733001,2147124205,3570,-1,8,63281
1363228162,5805,995.8200073242188000,256.3823852539062500,563.9385986328125000,5.5311532020568850,35.9849281311035160,76,523,97,78,81,11535,2146963035,2147521490,2147301083,2147524242,2147089115,2146918144,2147732342,2147121801,3369,-1,8,61154
1363231762,5805,1001.3599853515625000,262.5172119140625000,565.4979858398438000,5.4820208549499510,35.7241287231445300,76,509,98,78,80,11534,2146961197,2147522294,2147301019,2147526445,2147090834,2146911899,2147733787,2147121270,3294,-1,9,28364
1363235362,5804,998.9899902343750000,259.8534851074219000,566.8806152343750000,5.4384422302246090,35.8745689392089840,76,524,98,79,80,11532,2146963657,2147521270,2147303542,2147526153,2147090249,2146916406,2147734674,2147118692,3484,-1,9,62144
1363238962,5806,1003.2999877929688000,262.3369140625000000,566.8458862304688000,5.4395351409912110,35.7574081420898440,75,506,99,78,80,11536,2146960155,2147521380,2147300269,2147522697,2147089325,2146918034,2147734189,2147123008,3461,-1,9,16649
1363242562,5805,1001.0399780273438000,261.4504089355469000,566.9494018554688000,5.4362740516662600,35.8004302978515600,76,522,97,78,81,11530,2146961956,2147520594,2147301568,2147523885,2147086381,2146916214,2147731785,2147120960,3059,-1,8,25013
1363246162,5807,1004.1199951171875000,265.5185852050781000,568.4794921875000000,5.3880248069763180,35.6397018432617200,76,534,99,78,80,11528,2146962304,2147518985,2147300196,2147526217,2147085348,2146920603,2147731977,2147120832,618,-1,8,53988
1363249762,5806,1002.8499755859375000,265.4631042480469000,568.2598876953125000,5.3949489593505860,35.6384506225585940,77,548,100,78,80,11530,2146962450,2147520777,2147300214,2147524626,2147085376,2146921033,2147730166,2147119844,596,-1,8,25230
1363253362,5804,1006.5900268554688000,264.5549011230469000,569.1124877929688000,5.3680567741394040,35.6959800720214840,76,508,97,79,81,11528,2146961014,2147520064,2147300909,2147526107,2147088429,2146914898,2147732022,2147118765,3092,-1,9,34917
1363256962,5808,1003.6400146484375000,265.9710083007812500,569.2794189453125000,5.3627948760986330,35.6336097717285160,76,532,97,79,81,11523,2146959780,2147520704,2147298313,2147529728,2147089051,2146917760,2147736155,2147120932,421,-1,9,26385
1363260562,5804,1008.2600097656250000,263.8436889648437500,569.7218017578125000,5.3488388061523440,35.7397117614746100,74,510,98,79,80,11517,2146961609,2147523977,2147300662,2147527771,2147088000,2146917696,2147732955,2147120896,3033,-1,9,5382
1363264162,5806,1004.7199707031250000,264.6336975097656000,569.2767944335938000,5.3628768920898440,35.6949882507324200,74,518,98,79,80,11514,2146965878,2147521408,2147300937,2147524964,2147086930,2146917056,2147733220,2147122980,3403,0,9,38526
1363267762,5804,1007.7500000000000000,267.3933105468750000,570.6397705078125000,5.3198738098144530,35.5931892395019500,75,509,98,77,81,11513,2146962505,2147517568,2147300900,2147523702,2147086921,2146920594,2147736649,2147119744,3398,-1,9,18260
1363271362,5806,1006.8499755859375000,265.2229919433594000,569.3895263671875000,5.3593239784240720,35.6702003479003900,74,514,97,79,80,11506,2146962148,2147518144,2147301595,2147526857,2147088932,2146913554,2147730898,2147122048,3469,-1,8,52176
1363274962,5803,1007.0800170898438000,267.0315856933594000,570.6137695312500000,5.3206920623779300,35.6097602844238300,75,510,98,79,80,11509,2146962459,2147518354,2147302125,2147525805,2147086546,2146913280,2147733074,2147122724,3551,-1,9,58287
1363278562,5807,1007.4600219726562000,267.2897949218750000,570.6591796875000000,5.3192620277404785,35.5984306335449200,75,506,97,79,80,11506,2146960649,2147521682,2147303140,2147526637,2147088950,2146915382,2147729472,2147123099,3402,-1,8,40838
1363282162,5806,1005.3699951171875000,266.4955139160156000,570.9498291015625000,5.3100910186767580,35.6402702331543000,76,538,98,78,81,11506,2146959625,2147522258,2147301357,2147527049,2147088027,2146917376,2147728822,2147122898,424,-1,8,30970
1363285762,5808,1007.2399902343750000,268.4383850097656000,572.6342773437500000,5.2569179534912110,35.5823402404785160,75,514,97,77,79,11506,2146958546,2147518080,2147300946,2147527250,2147087945,2146918573,2147731986,2147119094,75,-1,8,57866
1363289362,5809,1007.2199707031250000,267.9476013183594000,570.6649780273438000,5.3190770149230960,35.5681190490722660,74,527,98,81,80,11505,2146963008,2147516964,2147302528,2147525622,2147085348,2146921581,2147732571,2147121325,53,0,9,16753
1363292962,5806,1012.8499755859375000,268.3489990234375000,570.7407226562500000,5.3166899681091310,35.5513992309570300,75,520,96,79,80,11503,2146959899,2147519762,2147299858,2147526765,2147087012,2146918857,2147731593,2147119405,474,-1,8,62126
1363296562,5809,1011.8300170898438000,267.0026855468750000,570.6762695312500000,5.3187217712402340,35.6122093200683600,75,515,97,78,80,11503,2146963858,2147520502,2147301129,2147525668,2147086500,2146913051,2147732013,2147120402,3577,-1,9,28989
1363300162,5805,1010.7899780273438000,267.2793884277344000,570.8978271484375000,5.3117308616638180,35.6034507751464840,75,505,99,77,81,11503,2146960246,2147523318,2147302445,2147527954,2147086710,2146921033,2147733330,2147122770,3445,-1,9,17839
1363303762,5805,1010.6400146484375000,265.1762084960937500,570.9785766601562000,5.3091812133789060,35.7013702392578100,75,512,98,78,80,11505,2146963766,2147519433,2147301037,2147528420,2147088073,2146916946,2147732288,2147122322,3206,-1,9,57312
1363307362,5805,1008.9299926757812000,266.9186096191406000,571.5358886718750000,5.2915902137756350,35.6314888000488300,75,510,99,79,81,11501,2146964077,2147520969,2147299977,2147523913,2147087414,2146918390,2147735012,2147122468,3268,-1,9,20251
1363310962,5805,1006.7999877929688000,266.2616882324219000,570.7299194335938000,5.3170318603515625,35.6470603942871100,74,516,98,80,80,11497,2146963200,2147514304,2147301787,2147526290,2147085394,2146921426,2147731602,2147121389,3213,-1,9,52406
1363314562,5805,1009.3499755859375000,266.3879089355469000,571.5792846679688000,5.2902221679687500,35.6566696166992200,74,516,97,79,81,11499,2146959826,2147518235,2147300489,2147526272,2147086994,2146918381,2147732900,2147120384,3295,-1,9,56401
1363318162,5803,1010.8400268554688000,267.5860900878906000,570.0405273437500000,5.3387851715087890,35.5739097595214840,76,528,98,79,80,11499,2146962596,2147521874,2147300864,2147525184,2147085714,2146921206,2147732342,2147118217,3399,-1,8,37908
1363321762,5803,1012.5900268554688000,265.5519104003906000,570.5579833984375000,5.3224530220031740,35.6765785217285160,74,506,98,77,80,11500,2146962825,2147518125,2147299529,2147525220,2147087341,2146917851,2147729792,2147120045,3459,-1,8,21574
1363325362,5803,1009.7999877929688000,266.9591979980469000,570.3073730468750000,5.3303642272949220,35.6069107055664060,74,513,100,79,79,11487,2146960923,2147519076,2147301705,2147528832,2147087442,2146919725,2147730669,2147119670,3406,-1,9,48129
1363328962,5806,1010.8800048828125000,267.8254089355469000,570.6818237304688000,5.3185482025146480,35.5749092102050800,74,528,98,79,80,11494,2146961572,2147520731,2147301531,2147524388,2147087744,2146920347,2147734043,2147122870,3360,-1,8,26529
1363332562,5807,1009.4299926757812000,266.5628967285156000,570.2426757812500000,5.3324050903320310,35.6242408752441400,76,534,97,79,81,11493,2146958107,2147522230,2147301046,2147525321,2147088265,2146919222,2147731693,2147120630,60,-1,8,2985
1363336162,5810,1009.9799804687500000,266.5313110351562500,570.9569702148438000,5.3098640441894530,35.6386299133300800,74,515,97,78,80,11481,2146964233,2147522093,2147301385,2147524416,2147087268,2146915309,2147729426,2147117842,68,-1,8,53500
1363339762,5804,1009.1599731445312000,267.8131103515625000,572.1417236328125000,5.2724690437316895,35.6018791198730500,76,552,99,78,80,11479,2146959917,2147520969,2147302354,2147528018,2147089060,2146919460,2147729901,2147118793,3463,-1,9,15410
1363343362,5808,1010.7100219726562000,267.2272949218750000,571.2136840820312000,5.3017601966857910,35.6118087768554700,76,544,97,78,80,11466,2146962413,2147522532,2147298779,2147524480,2147087369,2146919250,2147729709,2147121353,175,-1,8,48595
1363346962,5807,1009.7299804687500000,269.7603149414062500,572.9237060546875000,5.2477779388427730,35.5277595520019500,77,546,98,77,79,11474,2146959113,2147521353,2147301915,2147526299,2147089700,2146920457,2147730267,2147121664,165,0,8,62612
1363350562,5804,1014.6900024414062000,270.5191040039062500,572.5131835937500000,5.2607398033142090,35.4859390258789060,76,540,97,78,80,11472,2146959963,2147519771,2147303241,2147524900,2147088448,2146917028,2147731163,2147119542,3311,-1,9,32514
1363354162,5807,1012.4600219726562000,267.9616088867187500,571.5767211914062000,5.2903041839599610,35.5847702026367200,77,544,97,78,80,11466,2146964626,2147518272,2147303012,2147524498,2147085385,2146919597,2147729865,2147120237,378,-1,8,55926
1363357762,5807,1008.6699829101562000,266.9558105468750000,573.2833862304688000,5.2364177703857420,35.6618995666503900,76,556,99,78,81,11468,2146960603,2147521536,2147300416,2147526290,2147091318,2146925083,2147728173,2147121298,206,-1,8,44985
1363358154,5806,1007.0000000000000000,267.2179870605469000,573.5371704101562000,5.2284049987792970,35.6550788879394500,77,571,97,78,80,11485,2146962413,2147519552,2147301266,2147524882,2147086208,2146918418,2147729974,2147121490,3558,-1,9,65091
